Montrose, CO

1:30 AM MDT on April 26, 2018 (GMT -0600)
Montrose Regional

Weather History for KMTJ - November, 2014

Change the Weather History Date:

Wednesday, November 26, 2014

  Actual Average Record
Temperature  
Mean Temperature 40 °F 33 °F  
Max Temperature 54 °F 44 °F 64 °F (2017)
Min Temperature 26 °F 21 °F 8 °F (2010)
Degree Days  
Heating Degree Days 25 32  
Month to date heating degree days 737 696  
Since 1 July heating degree days 1159 1287  
Cooling Degree Days 0 0  
Month to date cooling degree days 0 0  
Year to date cooling degree days 782 643  
Moisture  
Dew Point 24 °F    
Average Humidity 58    
Maximum Humidity 81    
Minimum Humidity 35    
Precipitation  
Precipitation 0.00 in 0.03 in 0.10 in (2004)
Month to date precipitation 0.21 0.73  
Year to date precipitation 8.65 10.57  
Sea Level Pressure  
Sea Level Pressure 30.38 in    
Wind  
Wind Speed 4 mph (SSE)    
Max Wind Speed 9 mph    
Max Gust Speed 13 mph    
Visibility 10 miles    
Events      
T = Trace of Precipitation, MM = Missing Value Source: NWS Daily Summary

Daily Weather History Graph

Daily Weather History Graph

Search for Another Location

Airport or City:

Astronomy

Nov. 26, 2014 Rise Set
Actual Time 7:05 AM MST 4:52 PM MST
Civil Twilight 6:36 AM MST 5:21 PM MST
Nautical Twilight 6:03 AM MST 5:54 PM MST
Astronomical Twilight 5:31 AM MST 6:25 PM MST
Moon 10:40 AM MST 9:26 PM MST
Length of Visible Light 10h 45m
Length of Day
9h 47m
Waxing Crescent, 22% of the Moon is Illuminated
Nov 26
Waxing Crescent
Nov 29
First Quarter
Dec 6
Full
Dec 14
Last Quarter
Dec 21
New

Hourly Weather History & Observations

Time (MST) Temp. Windchill Dew Point Humidity Pressure Visibility Wind Dir Wind Speed Gust Speed Precip Events Conditions
12:53 AM 32.0 °F - 21.9 °F 66% 30.34 in 10.0 mi Calm Calm - N/A   Overcast
1:53 AM 32.0 °F 27.5 °F 23.0 °F 69% 30.35 in 9.0 mi SE 4.6 mph - N/A   Overcast
2:53 AM 33.1 °F - 21.0 °F 61% 30.34 in 10.0 mi Calm Calm - N/A   Overcast
3:53 AM 33.1 °F 30.0 °F 23.0 °F 66% 30.34 in 10.0 mi SSW 3.5 mph - N/A   Overcast
4:53 AM 32.0 °F - 25.0 °F 75% 30.35 in 10.0 mi Calm Calm - N/A   Overcast
5:53 AM 32.0 °F 28.7 °F 23.0 °F 69% 30.37 in 10.0 mi South 3.5 mph - N/A   Mostly Cloudy
6:53 AM 28.9 °F 23.9 °F 19.9 °F 69% 30.40 in 10.0 mi South 4.6 mph - N/A   Clear
7:53 AM 27.0 °F 20.5 °F 19.9 °F 75% 30.42 in 10.0 mi SE 5.8 mph - N/A   Clear
8:53 AM 35.1 °F 32.2 °F 21.0 °F 57% 30.41 in 10.0 mi SSE 3.5 mph - N/A   Clear
9:53 AM 44.1 °F 42.5 °F 24.1 °F 45% 30.38 in 10.0 mi North 3.5 mph - N/A   Clear
10:53 AM 46.9 °F - 25.0 °F 42% 30.38 in 10.0 mi Calm Calm - N/A   Clear
11:53 AM 51.1 °F - 26.1 °F 38% 30.33 in 10.0 mi Variable 4.6 mph - N/A   Clear
12:53 PM 53.1 °F - 26.1 °F 35% 30.31 in 10.0 mi Calm Calm - N/A   Clear
1:53 PM 54.0 °F - 26.1 °F 34% 30.29 in 10.0 mi Variable 3.5 mph - N/A   Clear
2:53 PM 54.0 °F - 26.1 °F 34% 30.29 in 10.0 mi North 5.8 mph - N/A   Clear
3:53 PM 52.0 °F - 26.1 °F 37% 30.31 in 10.0 mi NNW 8.1 mph - N/A   Clear
4:53 PM 46.9 °F - 26.1 °F 44% 30.35 in 10.0 mi NW 6.9 mph - N/A   Clear
5:53 PM 42.1 °F - 25.0 °F 51% 30.39 in 10.0 mi Calm Calm - N/A   Clear
6:53 PM 37.0 °F 32.4 °F 25.0 °F 62% 30.45 in 10.0 mi South 5.8 mph - N/A   Clear
7:53 PM 32.0 °F 24.8 °F 24.1 °F 73% 30.48 in 10.0 mi SE 8.1 mph - N/A   Clear
8:53 PM 30.9 °F 22.8 °F 24.1 °F 76% 30.46 in 10.0 mi SE 9.2 mph - N/A   Clear
9:53 PM 28.0 °F 21.7 °F 21.9 °F 78% 30.46 in 10.0 mi ESE 5.8 mph - N/A   Clear
10:53 PM 27.0 °F 21.6 °F 21.9 °F 81% 30.46 in 10.0 mi SSE 4.6 mph - N/A   Clear
11:53 PM 28.0 °F 22.8 °F 21.9 °F 78% 30.46 in 10.0 mi SSE 4.6 mph - N/A   Clear